sat.trackr.live / text

‹ back to catalog

2024-092C

NORAD 59775 · 2024-092C

PAYLOAD ACTIVE UNKNOWN

§ Identity

Operator
Country
CIS
Launch date
2024-05-16
Launch site
PLMSC
Launch vehicle
Mass (kg)
RCS (m²)

External: N2YO · Heavens-Above · Gunter

§ Orbital elements

Epoch: 2026-05-25T04:21:52.792128Z

Period
94.18 min
Inclination
97.6601°
Eccentricity
0.0007689
Mean motion
15.28909460 rev/d
Perigee alt
473.8 km
Apogee alt
484.3 km
Semi-major
6,857.2 km
B*
3.5428e-4
RAAN
275.4553°
Arg perigee
262.3406°
Mean anomaly
97.6960°
Rev number
11,206

§ Raw data

2024-092C1 59775U 24092C   26145.18186102  .00009881  00000+0  35428-3 0  99952 59775  97.6601 275.4553 0007689 262.3406  97.6960 15.28909460112069

JSON: /api/v1/satellites/59775 · /tle

For live sub-satellite position, see the globe view (requires WebGL).

§ Visibility from observer

Set your observer location to see the next 7 days of passes ≥ 10°. The values pass through the URL so the page stays shareable.

No JS? Fill the form by hand. The geolocation button needs JavaScript.

§ Radio — SatNOGS DB

ModeDescriptionDownlinkUplink
GMSK USP Backup telemetry transmitter 401.160 MHz
GMSK USP Main telemetry transmitter 401.035 MHz

2 transmitters · refreshed weekly from db.satnogs.org